IRIDIUM 98 [P]

Last updated on Mon Jul 23 2018 00:20:18 GMT+0000 (Coordinated Universal Time)

1 27451U 02031B 18203.44558177 .00074745 12450-6 45724-3 0 9990 2 27451 86.3953 214.4152 0356303 324.3097 33.4783 15.23276066848738

Satellite not in orbit